Weather History for KMCK - May, 2013

Change the Weather History Date:

Thursday, May 9, 2013

  Actual Average Record
Temperature  
Mean Temperature 55 °F 58 °F  
Max Temperature 65 °F 72 °F 97 °F (1916)
Min Temperature 44 °F 44 °F 1 °F (2015)
Degree Days  
Heating Degree Days 8    
Growing Degree Days 7 (Base 50)    
Moisture  
Dew Point 48 °F    
Average Humidity 75    
Maximum Humidity 93    
Minimum Humidity 54    
Precipitation  
Precipitation 0.01 in 0.09 in 0.55 in (1998)
Month to date precipitation 0.28 0.85  
Year to date precipitation 3.85 5.65  
Sea Level Pressure  
Sea Level Pressure 30.03 in    
Wind  
Wind Speed 11 mph (North)    
Max Wind Speed 23 mph    
Max Gust Speed 25 mph    
Visibility 9 miles    
Events      
T = Trace of Precipitation, MM = Missing Value Source: NWS Daily Summary

Daily Weather History Graph

Daily Weather History Graph

Search for Another Location

Airport or City:

Trip Planner

Search our weather history database for the weather conditions in past years. The results will help you decide how hot, cold, wet, or windy it might be!

Date:

Astronomy

May. 09, 2013 Rise Set
Actual Time 6:32 AM CDT 8:45 PM CDT
Civil Twilight 6:02 AM CDT 9:16 PM CDT
Nautical Twilight 5:25 AM CDT 9:53 PM CDT
Astronomical Twilight 4:44 AM CDT 10:34 PM CDT
Moon 6:18 AM CDT (5/9) 8:42 PM CDT (5/9)
Length of Visible Light 15h 14m
Length of Day
14h 13m
Waning Crescent, 0% of the Moon is Illuminated
May 9
Waning Crescent
May 9
New
May 17
First Quarter
May 24
Full
May 31
Last Quarter

Hourly Weather History & Observations

Time (CDT) Temp. Windchill Dew Point Humidity Pressure Visibility Wind Dir Wind Speed Gust Speed Precip Events Conditions
12:53 AM 57.0 °F - 50.0 °F 77% 29.94 in 10.0 mi NE 8.1 mph - N/A   Scattered Clouds
1:53 AM 54.0 °F - 48.9 °F 83% 29.93 in 8.0 mi North 5.8 mph - N/A   Clear
2:53 AM 53.1 °F - 48.9 °F 86% 29.93 in 7.0 mi NNW 10.4 mph - N/A   Clear
3:53 AM 51.1 °F - 46.0 °F 83% 29.94 in 10.0 mi North 12.7 mph - N/A   Clear
4:53 AM 50.0 °F - 44.1 °F 80% 29.95 in 10.0 mi NNW 9.2 mph - N/A   Clear
5:53 AM 50.0 °F - 44.1 °F 80% 29.96 in 10.0 mi North 10.4 mph - N/A   Clear
6:53 AM 50.0 °F - 45.0 °F 83% 29.97 in 10.0 mi NNW 13.8 mph - N/A   Clear
7:53 AM 52.0 °F - 46.9 °F 83% 29.99 in 10.0 mi North 12.7 mph - N/A   Partly Cloudy
8:08 AM 53.6 °F - 46.4 °F 77% 30.03 in 10.0 mi North 12.7 mph - N/A   Mostly Cloudy
8:53 AM 53.1 °F - 48.0 °F 83% 30.03 in 9.0 mi North 12.7 mph - N/A   Overcast
9:53 AM 54.0 °F - 48.9 °F 83% 30.04 in 7.0 mi North 11.5 mph - N/A   Overcast
10:11 AM 55.4 °F - 48.2 °F 77% 30.07 in 9.0 mi North 12.7 mph - N/A   Overcast
10:39 AM 57.2 °F - 50.0 °F 77% 30.07 in 7.0 mi North 13.8 mph 20.7 mph N/A   Overcast
10:53 AM 55.9 °F - 50.0 °F 80% 30.06 in 8.0 mi North 16.1 mph - N/A   Overcast
11:10 AM 57.2 °F - 51.8 °F 82% 30.08 in 8.0 mi North 12.7 mph - N/A   Overcast
12:53 PM 64.9 °F - 48.0 °F 54% 30.04 in 10.0 mi North 16.1 mph 23.0 mph N/A   Overcast
1:00 PM 64.4 °F - 48.2 °F 56% 30.07 in 10.0 mi North 15.0 mph 25.3 mph N/A   Mostly Cloudy
1:53 PM 61.0 °F - 51.1 °F 70% 30.06 in 10.0 mi North 23.0 mph - N/A   Overcast
2:53 PM 59.0 °F - 51.1 °F 75% 30.07 in 10.0 mi North 16.1 mph - 0.00 in   Overcast
3:53 PM 63.0 °F - 50.0 °F 63% 30.05 in 10.0 mi NNE 16.1 mph - N/A   Overcast
4:53 PM 57.9 °F - 50.0 °F 75% 30.06 in 9.0 mi NNE 18.4 mph - N/A   Overcast
5:53 PM 61.0 °F - 46.9 °F 60% 30.06 in 10.0 mi NE 18.4 mph - 0.01 in   Overcast
6:53 PM 61.0 °F - 46.9 °F 60% 30.06 in 10.0 mi NNE 13.8 mph - N/A   Scattered Clouds
7:53 PM 60.1 °F - 48.0 °F 64% 30.07 in 10.0 mi ENE 12.7 mph - N/A   Overcast
8:53 PM 57.0 °F - 48.0 °F 72% 30.09 in 10.0 mi NE 8.1 mph - N/A   Overcast
9:53 PM 54.0 °F - 46.9 °F 77% 30.11 in 10.0 mi Calm Calm - N/A   Partly Cloudy
10:53 PM 53.1 °F - 46.9 °F 80% 30.12 in 10.0 mi Calm Calm - N/A   Clear
11:53 PM 46.4 °F 44.3 °F 44.6 °F 93% 30.13 in 9.0 mi West 4.6 mph - N/A   Clear